Погода Ефимовская

Погода Ефимовская : погода сейчас, прогноз погоды и архив. Всё, что Вы хотите узнать о погоде Ефимовская!

Поиск расширенной информации на нашем сайте:

Другие новости

Новости СМИ2

Главная страница сайта

Новости сайта

02.10.2013

Напоминаем, что на нашем новом сайте вы можете получить высокодетализированные прогнозы погоды по пунктам России, СНГ и мира (включающие важные для авиации метеовеличины, такие как направление и скорость ветра, видимость, явления погоды, количество и форма облачности, нижняя и верхняя граница облачности), а также ознакомиться с разнообразными материалами по авиационной метеорологии и подборкой полезных ссылок на эту тему.

Сайт Метеоцентр.Азия посвящён разработке технологий оптимизации авиаметеорологического обслуживания, включая проектирование и перспективное создание нескольких автоматизированных авиаметеорологических систем:
- система выпуска высокодетальных прогностических карт явлений погоды для нижнего воздушного пространства по России и ближнему зарубежью;
- система верификации прогнозов TAF (выпускаемых синоптиками официальных АМСГ РФ и ближнего зарубежья) и AUTOTAF (выпускаемых сайтом Метеоцентр.Азия) - выявление ошибок, онлайн-сопоставление с фактической погодой METAR, автоматическое внесение коррективов в прогнозы при резком отклонении фактической погоды от прогноза, подсчёт оправдываемости прогнозов по элементам и в целом;
- система обработки, анализа и отображения авиаметеорологической информации для применения провайдерами метеорологической информации.

Рекомендуем: отвертки для iphone 4s

Погода Ефимовская - сегодня

Время (UTC), дата Ветер
(°,м/с) 
Видим.   Явления Облачность Т
(°С)
Тd
(°С)
f(%) Тe
(°С)
Pmin
(гПа)
dP
(гПа)
Po
(мм)
O2
(г/м3)
Тmin Tmax R s Состояние
почвы
09 25.06.17 160 (Ю) н/о    н/о 
+13.1 +11.2 88 +17  1000  0.1  735  280           
12 25.06.17 160 (Ю) н/о    н/о 
+15.8 +12 78 +20  999.5  -0.3  734  277           
15 25.06.17 260 (З) н/о    н/о 
+15.7 +10.7 72 +19  999.9  0.3  735  278           
18 25.06.17 170 (Ю) 20000 м    4/0 средняя 
[Ac trans]
+14.6 +11.3 81 +19  1000.3  0.3  735  279    +17.8       
21 25.06.17 130 (ЮВ) н/о    н/о 
+11.5 +10.7 95 +16  1000.4  0.1  735  282           
00 26.06.17 180 (Ю) н/о    н/о 
+11.7 +11.1 96 +15  1000.7  0.3  735  282           
03 26.06.17 190 (Ю) н/о    н/о 
+11.9 +10.4 91 +15  1000.1  0.1  735  282  +11         
06 26.06.17 190 (Ю) 20000 м  в посл. час дождь  10/0 средняя 
[St|As op]
+14.5 +10.6 77 +17  999.1  -0.9  734  279  +11    0.8    влажная 
09 26.06.17 190 (Ю) н/о    н/о 
+15.9 +10.6 71 +19  998.1  -0.9  733  277           
12 26.06.17 170 (Ю) н/о    н/о 
+16.6 +11.7 73 +21  997  -1  733  276           
15 26.06.17 240 (ЮЗ) н/о    н/о 
+18.9 +6.3 44 +20  996.4  -0.5  732  275           
18 26.06.17 310 (СЗ) 1{10}  20000 м  в посл. час ливневой дождь  6/6 600 м кучево-дожд. 
[Cb cap]
+10.5 +9.2 92 +13  997.5  0.5  733  283    +19.1     
21 26.06.17 200 (Ю) н/о    н/о 
+9.2 +8.6 96 +10  997.3  -0.4  732  284           
00 27.06.17 220 (ЮЗ) н/о    н/о 
+8.4 +7.7 95 +9  997.8  0.4  733  285           
03 27.06.17 210 (ЮЗ) н/о    н/о 
+9.4 +8.6 95 +10  997.3  -0.3  732  284  +8.3         
06 27.06.17 250 (З) 20000 м    10/10 480 м кучево-дожд. 
[Cb cap]
+10.8 +9 89 +12  998.4  1.1  733  283  +8.3      влажная 
09 27.06.17 240 (ЮЗ) н/о    н/о 
+15.3 +8.4 63 +16  998.5  0.5  734  278           
12 27.06.17 280 (З) 4{10}  н/о    н/о 
+15 +8.2 64 +15  1000  1.4  735  279           
15 27.06.17 230 (ЮЗ) 2{10}  н/о    н/о 
+12.8 +9.8 82 +14  1000.8  0.6  735  281           
18 27.06.17 220 (ЮЗ) 20000 м    9/9 600 м кучево-дожд. 
[Cb cap]
+12 +9.6 85 +13  1001.9  736  282    +16.6     
21 27.06.17 260 (З) н/о    н/о 
+11.3 +9.7 90 +13  1003.2  1.3  737  283           
00 28.06.17 270 (З) н/о    н/о 
+10.3 +7.7 84 +10  1004.4  1.1  738  285           
03 28.06.17 250 (З) н/о    н/о 
+10.3 +8.3 87 +10  1005.2  0.8  738  285  +9.4         
06 28.06.17 260 (З) 20000 м    8/8 600 м кучево-дожд. 
[Cb cap]
+11.4 +9.1 86 +12  1006.4  1.3  739  284  +9.4    0.0    влажная 
09 28.06.17 260 (З) н/о    н/о 
+14.5 +9.3 71 +16  1007.7  1.5  740  282           
Время (UTC), дата Ветер
(°,м/с) 
Видим.   Явления Облачность Т
(°С)
Тd
(°С)
f(%) Тe
(°С)
Pmin
(гПа)
dP
(гПа)
Po
(мм)
O2
(г/м3)
Тmin Tmax R s Состояние
почвы

Для получения пояснительной информации подведите курсор к названию столбца.

ПОГОДА Ефимовская - архив

Всё, что Вы хотите узнать о погоде Ефимовская - удобно и подробно!

Выберите нужную дату (начиная с 1 января 2015* года) и нажмите кнопку "Найти".
Будут отображены архивные сводки погоды по пункту Ефимовская, начиная с указанной даты.


Отображать данные в формате CSV (для использования в таблицах Excel)


Внимание! Наш архив погоды предназначен исключительно для личного некоммерческого использования в познавательных целях. Если Вам необходимы официальные справки о состоянии погоды (для производственных, юридических, коммерческих и т.п. целей), обращайтесь в органы Росгидромета.

*Примечание: данная дата относится к архиву по метеостанциям СССР (Россия, СНГ, Балтия).
Архив по метеостанциям Зарубежной Европы и Азии (кроме Китая) хранится 10 дней, по другим регионам земного шара (Китай, Африка, Америка, Австралия, Океания) - 1 день.

Ефимовская - район местоположения метеостанции


Название, широта, долгота, высота метеостанции:
Ефимовская 59.5°ш. 34.7°д. 176 м над ур. моря [Российская Федерация]

Дополнительная информация

В oтличие oт бoльшинства пoгoдных сайтoв мы публикуем пoдрoбную метеoинфoрмацию в детальнoм прoфессиoнальнoм фoрмате.

Характеристики температуры и влажнoсти вoздуха измеряются на высoте 2 м в тени вдали oт зданий и деревьев.
Скoрoсть ветра измеряется на высoте 10 м (на урoвне рoста челoвека скoрoсть ветра ниже в 1.5-2 раза). Если метеoстанция нахoдится в гoрoде или в лесу, тo скoрoсть ветра занижена на 2-4 м/с пo сравнению с oткрытым местoм. Скoрoсть ветра над акватoриями крупных рек и oзёр, а также на вершинах хoлмoв на 2-5 м/с выше, чем в oбычных услoвиях.
Атмoсфернoе давление в разных тoчках местнoсти мoжет значительнo oтличаться oт давления на метеoстанции, в зависимoсти oт услoвий рельефа (при пoдъёме на 10 м давление пoнижается примернo на 1 мм рт.ст.).